Regional Weather Roundup
Issued by NWS

Home | Current Version | Previous Version | Graphics & Text | Print | Product List | Glossary On
Versions: 1 2 3 4 5 6 7 8 9 10 11 12 13 14 15 16 17 18 19 20 21 22 23 24 25 26 27 28 29 30 31 32 33 34 35 36 37 38 39 40 41 42 43 44 45 46 47 48 49 50
000
ASUS43 KMKX 231600
RWRWI

WISCONSIN REGIONAL WEATHER ROUNDUP
NATIONAL WEATHER SERVICE MILWAUKEE/SULLIVAN WI
1100 AM CDT TUE AUG 23 2016

NOTE: "FAIR" INDICATES FEW OR NO CLOUDS BELOW 12,000 FEET WITH NO
SIGNIFICANT WEATHER AND/OR OBSTRUCTIONS TO VISIBILITY.

WIZ001-002-006>008-014>016-023>028-231700-
NORTHWEST WISCONSIN

CITY           SKY/WX    TMP DP  RH WIND       PRES   REMARKS
SUPERIOR ARPT  PTSUNNY   76  65  68 SW7       29.90S
ASHLAND        SUNNY     78  64  61 S16G22    29.94S HX  80
HAYWARD        SUNNY     75  62  64 S17       29.97F
SIREN          SUNNY     76  62  60 S10G20    29.94S
CUMBERLAND     SUNNY     72  61  68 S13G18    29.99S
RICE LAKE      SUNNY     74  62  66 SE13      30.01S
CHETEK         NOT AVBL
LADYSMITH      SUNNY     74  63  67 S14       30.04F
EAU CLAIRE     NOT AVBL
MENOMONIE      SUNNY     77  63  61 S15G21    30.00F
NEW RICHMOND   SUNNY     76  61  59 S15G21    29.97S
OSCEOLA        SUNNY     76  62  63 S16       29.97F
$$

WIZ003>005-009-010-017-018-231700-
NORTH CENTRAL WISCONSIN

CITY           SKY/WX    TMP DP  RH WIND       PRES   REMARKS
MANITOWISH WTR NOT AVBL
ARBOR VITAE    SUNNY     74  64  70 S12G18    30.06S
WOODRUFF       SUNNY     74  64  70 S12G18    30.06S
RHINELANDER    SUNNY     74  63  68 S10       30.09S
EAGLE RIVER    SUNNY     73  59  60 SW9G16    30.06F
LAND O LAKES   SUNNY     73  61  65 SW9G18    30.06F
PHILLIPS       SUNNY     74  64  70 S14       30.03F
TOMAHAWK       SUNNY     73  62  67 S3        30.07S
MEDFORD        SUNNY     72  64  76 S9G16     30.07F
MERRILL        SUNNY     74  63  68 SW10G20   30.09S
$$

WIZ029-030-035-036-043>047-231700-
CENTRAL WISCONSIN

CITY           SKY/WX    TMP DP  RH WIND       PRES   REMARKS
WAUSAU         SUNNY     74  61  63 S14       30.08F
MOSINEE        SUNNY     73  63  68 S13       30.11F
MARSHFIELD     SUNNY     77  62  59 S10       30.08F
STEVENS POINT  SUNNY     73  60  65 S9        30.12S
WAUPACA        SUNNY     77  62  60 S10       30.13S
WAUTOMA        SUNNY     77  63  61 SW10      30.13F
WISC RAPIDS    SUNNY     76  63  64 S12       30.11F
CAMP DOUGLAS   NOT AVBL
$$

WIZ011>013-019>022-031-037>040-048>050-231700-
NORTHEAST WISCONSIN

CITY           SKY/WX    TMP DP  RH WIND       PRES   REMARKS
ANTIGO         SUNNY     73  62  68 SW10G22   30.11S
SHAWANO        SUNNY     76  63  63 S8        30.12S
OCONTO         NOT AVBL
STURGEON BAY   SUNNY     77  62  59 SW16      30.13S
GREEN BAY      SUNNY     76  64  66 S10G18    30.13S
MANITOWOC      NOT AVBL
APPLETON       MOSUNNY   75  57  53 SW16      30.13F
CLINTONVILLE   SUNNY     75  61  60 S12       30.12S
OSHKOSH        SUNNY     76  61  59 SW14      30.14S
$$

WIZ032>034-041-042-053>061-231700-
SOUTHWEST WISCONSIN

CITY           SKY/WX    TMP DP  RH WIND       PRES   REMARKS
LA CROSSE      PTSUNNY   78  69  73 S13       30.06S HX  80
SPARTA         MOSUNNY   76  63  64 S9G16     30.09F
VIROQUA        PTSUNNY   73  62  68 S9        30.11S
BOSCOBEL       MOSUNNY   78  62  57 S8G21     30.11F HX  80
PRAIRIE DU CHI MOSUNNY   76  62  61 SE6       30.09F
PLATTEVILLE    SUNNY     74  66  77 S10       30.15F
$$

WIZ056-057-062-063-064-067-068-231700-
SOUTH CENTRAL WISCONSIN

CITY           SKY/WX    TMP DP  RH WIND       PRES   REMARKS
REEDSBURG      NOT AVBL
BARABOO/DELLS  SUNNY     74  61  62 SW10      30.14S
LONE ROCK      NOT AVBL
MINERAL POINT  SUNNY     73  64  73 S7        30.16S
MADISON        PTSUNNY   76  63  64 S9        30.15S
MIDDLETON      SUNNY     76  63  64 S9        30.16S
WATERTOWN      SUNNY     75  63  67 S10       30.17S
MONROE         SUNNY     73  63  68 S14       30.17S
JANESVILLE     MOSUNNY   77  63  61 S14       30.17F
$$

WIZ051-052-058>065-066-070>072-231700-
SOUTHEAST WISCONSIN

CITY           SKY/WX    TMP DP  RH WIND       PRES   REMARKS
MILWAUKEE      MOSUNNY   80  60  50 SW15      30.18F HX  81
WAUKESHA       SUNNY     75  61  60 S12       30.20S
MILWAUKEE/TIMM SUNNY     75  55  50 SW14      30.19F
RACINE         SUNNY     79  59  50 S12       30.21S HX  80
BURLINGTON     SUNNY     75  60  58 S6G17     30.19S
KENOSHA        MOSUNNY   78  60  53 SW12G23   30.20F
FOND DU LAC    SUNNY     76  62  62 S13       30.16S
SHEBOYGAN      SUNNY     78  60  53 SW12      30.17S
WEST BEND      SUNNY     75  59  57 SW13      30.18S
JUNEAU         SUNNY     74  62  67 S13       30.19R
$$

LSZ147-162-231700-
LAKE SUPERIOR

STATION/POSITION TIME  TEMP    WIND        PRES    WAVE
                       AIR SEA DIR/SP/G            HT/PER
                 (UTC) (F)     (DEG/KT/KT) (MB)    (FT/S)
W MID LAKE BUOY  1450   69 66  210/ 12/ 14 1013.1F   2/ 5
DEVILS ISLAND    1500   72     140/  7/ 10 1013.1F
SAXON HARBOR     1500   76     200/ 14/ 20 1013.5S
$$

LMZ867-665-643>646-231700-
LAKE MICHIGAN

STATION/POSITION TIME  TEMP    WIND        PRES    WAVE
                       AIR SEA DIR/SP/G            HT/PER
                 (UTC) (F)     (DEG/KT/KT) (MB)    (FT/S)
CHAMBERS ISLAND  1540   73     190/  7/ 17 1019.6S
S GREEN BAY BUOY 1500   71 73  200/ 17/ 21 1019.2F
N MID LAKE BUOY  1450   72 71  210/ 19/ 23 1018.8R   6/ 6
NORTHPORT PIER   1500   75     200/  4/ 11 1019.3S
SISTER BAY       1522   77     240/ 14/ 17   N/A
KEWAUNEE LAKESHO 1500   64     180/ 10/ 11 1020.3S
SHEBOYGAN LAKESH 1500   64     170/ 16/ 16 1021.7R
PORT WASHINGTON  1540   71     180/  6/  8 1022.4S
ATWATER BUOY     1500   70 64  180/ 10/ 12   N/A
MILWAUKEE LAKESH 1510   74     220/ 15/ 17   N/A
S MID LAKE BUOY  1450   73 74  180/ 17/ 19 1022.4R   3/ 4
KENOSHA   LAKESH 1500   75     200/ 12/ 18 1022.4S
$$

TC  - TEMPERATURE IN CELSIUS
VSB - VISIBILITY IN STATUTE MILES
WCI - WIND CHILL INDEX
HX  - HEAT INDEX





USA.gov is the U.S. government's official web portal to all federal, state and local government web resources and services.